Tracking 35055 objects as of 18-Aug-2026
HD Live streaming from Space Station
objects crossing your sky now

CHUANG XIN 26 (CX-26)

Track CHUANG XIN 26 (CX-26) now!
10-day predictions


NORAD ID: 69972
Int'l Code: 2026-158A
Launch date: July 10, 2026
Source: People's Republic of China (PRC)
Launch site: Wenchang Satellite Launch Center (WSC)
Your satellite tracking list
Your tracking list is empty




NASA's NSSDC Master Catalog

Two Line Element Set (TLE):
1 69972U 26158A   26229.99603477  .00000138  00000-0  12624-3 0  9991
2 69972  49.9835 137.7667 0005072  58.9538 301.1873 14.25122423  5523
Source of the keplerian elements: AFSPC